COSMOS 1275 DEB, 42171

Orbit data source: Space-Track

COSMOS 1275 DEB, 42171 is space debris in LEO originally from a launch on Thu, 04 Jun 1981 UTC launched from the Plesetsk Missile And Space Complex (PKMTR). Debris objects in space refer to the collection of defunct objects orbiting the Earth. Examples of debris include non-operational satellites, rocket bodies, and fragments generated from explosions, collisions, or faulty payload assembly.

Loading next visibility...
Identifier
42171, 1981-053SK
Orbit
LEO
Country
Flag of CISCIS
Related business
Manufacturer
Unknown
Mission
Spacecraft
Bus & Motor
Unknown
Mass
Unknown
Launch date (UTC)
1981-06-04 (45 years ago)
Launch vehicle
Unknown
Launch site
Plesetsk Missile And Space Complex (PKMTR)
Object type
Payload
Rocket body
Debris
Shape & HBR
Unknown shape, 0.1 m
Radar Cross Section
Small (<0.1 m²)

Expand to show TLE details & history
Last TLE update: 14 hours ago

TLE from 14 hours ago
0 COSMOS 1275 DEB
1 42171U 81053SK  26045.08095830  .00004128  00000-0  20291-2 0  9993
2 42171  83.0814 324.1200 0043671  13.3072 346.9248 14.16969409 87909
Epoch: 2026-02-14T01:56Z
TLE epoch observation values (Epoch: 2026-02-14T01:56:34.797Z)
Latitude
-0.00003°
Longitude
150.86587°
Altitude
807.897 km
Speed
7.465 km/s
True Right ascension
21h 36m 28s
True Declination
0° 00' 00"
Sunlit
Object was in daylight at epoch
Visualization orbit readout
Latitude
Unknown
Longitude
Unknown
Altitude
Unknown
Speed
Unknown
Apparent Right ascension
Unknown
Apparent Declination
Unknown
Sunlit
N/A
Visualization observer readout
Local Sidereal Time
18:54:02
Azimuth
Unknown
Elevation
Unknown
Doppler factor
Unknown
Orbital elements
Apogee altitude
864.196 km
Perigee altitude
801.215 km
Semi-major axis
7,210.843 km
Eccentricity
0.00437
Inclination
83.0814°
RAAN
324.12°
Arg. of periapsis
13.3072°
True anomaly
346.81098°
Mean anomaly
346.9248°
Eccentric anomaly
346.86795°
Mean motion
3.54457 °/min
Orbital period
101.56 mins
BSTAR
0.0020291
Loading maneuver chart data...
Computing Atmospheric mass density...
Loading historical data...
Loading historical data...
Loading historical data...
Loading historical data...
Loading historical data...
Loading historical data...
Loading historical data...

Documentation

Showing up to 5 results
|